Location: Marsån
(66.4167°N, 22.2833°E)
Time: 08:26:31
(UTC+00:00)

Cosmos 2333 Rocket - Pass Details

Date: 24 February 2024
Orbit: 838 x 864 km, 70.8° (Epoch: 25 April)

Event Time Altitude Azimuth Distance (km) Brightness Sun altitude
Rises 19:04:01 0° 314° (NW) 3,423 6.7 -22.1°
Reaches altitude 10° 19:06:38 10° 307° (NW) 2,480 5.8 -22.3°
Maximum altitude 19:11:47 37° 242° (WSW) 1,298 3.4 -22.8°
Enters shadow 19:14:57 21° 189° (S) 1,831 3.7 -23.1°
